Location: Adavinekkalam
(16.6301°N, 80.7229°E)
Time: 12:30:06
(UTC+00:00)

SL-16 R/B - Pass Details

Date: 15 May 2026
Orbit: 984 x 1007 km, 99.8° (Epoch: 9 June)

Event Time Altitude Azimuth Distance (km) Brightness Sun altitude
Rises 22:43:19 0° 161° (SSE) 3,723 5.5 -19.0°
Reaches altitude 10° 22:45:48 10° 159° (SSE) 2,774 4.8 -18.5°
Maximum altitude 22:52:01 72° 75° (ENE) 1,051 2.8 -17.1°
Drops below altitude 10° 22:58:14 10° 352° (N) 2,772 5.1 -15.8°
Sets 23:00:42 0° 350° (N) 3,720 5.8 -15.3°
